{"data":{"norad_id":49158,"epoch":"2026-09-19T13:31:46.392096Z","epoch_age_seconds":122163,"freshness":"FRESH","line1":"1 49158U 21082AE  26262.56373139  .00440656  98970-4  51544-3 0  9999","line2":"2 49158  69.9493 339.7159 0007729 290.9421  69.0966 16.08486052280666","mean_motion":16.08486052,"eccentricity":0.0007729,"inclination_deg":69.9493,"raan_deg":339.7159,"arg_perigee_deg":290.9421,"mean_anomaly_deg":69.0966,"bstar":0.00051544,"rev_number":28066,"period_min":89.525177927996,"perigee_km":245.87604652292,"apogee_km":256.1233660435,"semimajor_km":6629.1367062832,"source":"CELESTRAK","updated_at":"2026-09-20T09:00:39.251288Z"}}